Location: Guayaquil
(2.1667°S, 79.9000°W)
Time: 20:21:46
(UTC-05:00)

Tiangong 2 - Visible Passes

Search period start: 23 September 2017 00:00
Search period end: 03 October 2017 00:00
Orbit: 389 x 393 km, 42.8° (Epoch: 23 September)

Date Brightness Start Highest point End Pass type
(mag) Time Alt. Az. Time Alt. Az. Time Alt. Az.
25 Sep 2.8 19:02:22 10° N 19:04:40 18° NE 19:04:45 18° NE visible
26 Sep 2.3 19:40:52 10° WNW 19:43:29 41° WSW 19:43:29 41° WSW visible
27 Sep 1.1 18:43:20 10° NW 18:46:29 59° NE 18:49:38 10° SE visible
28 Sep 4.0 19:23:49 10° W 19:25:46 15° SW 19:27:44 10° S visible
29 Sep 3.4 05:16:50 10° SSW 05:19:28 23° SE 05:22:07 10° E visible
30 Sep 4.4 04:21:40 10° SE 04:21:56 10° SE 04:22:13 10° SE visible
01 Oct 1.1 05:00:03 35° SW 05:01:14 81° SE 05:04:25 10° NE visible
02 Oct 4.6 04:06:25 11° ENE 04:06:25 11° ENE 04:06:31 10° ENE visible
02 Oct 3.3 05:39:14 10° WNW 05:40:27 12° NW 05:41:41 10° NNW visible
